owner,sensor,date,latitude,longitude,vertical_datum,wind_speed,wind_to_direction,wind_speed_of_gust,qcFlag 
COMPS,ioos:station:USF.COMPS:NFB:1,2015-08-01T00:00:00Z,25.0840,-81.0960,6.0,2.92,153.72,4.21,'1111122,1111122,1111122' 
COMPS,ioos:station:USF.COMPS:NFB:1,2015-08-01T00:06:00Z,25.0840,-81.0960,6.0,2.03,142.56,3.52,'1111122,1111122,1111122' 
COMPS,ioos:station:USF.COMPS:NFB:1,2015-08-01T00:12:00Z,25.0840,-81.0960,6.0,1.02,125.62,2.54,'1111122,1111122,1111122' 
COMPS,ioos:station:USF.COMPS:NFB:1,2015-08-01T00:18:00Z,25.0840,-81.0960,6.0,1.97,141.32,3.33,'1111122,1111122,1111122' 
COMPS,ioos:station:USF.COMPS:NFB:1,2015-08-01T00:24:00Z,25.0840,-81.0960,6.0,0.43,100.49,2.54,'1111122,1111122,1111122' 
COMPS,ioos:station:USF.COMPS:NFB:1,2015-08-01T00:30:00Z,25.0840,-81.0960,6.0,4.12,21.99,7.25,'1111122,1111122,1111122' 
COMPS,ioos:station:USF.COMPS:NFB:1,2015-08-01T00:36:00Z,25.0840,-81.0960,6.0,6.59,13.33,9.7,'1111122,1111122,1111122' 
COMPS,ioos:station:USF.COMPS:NFB:1,2015-08-01T00:42:00Z,25.0840,-81.0960,6.0,8.06,63.95,11.07,'1111122,1111122,1111122' 
COMPS,ioos:station:USF.COMPS:NFB:1,2015-08-01T00:48:00Z,25.0840,-81.0960,6.0,9.1,69.7,12.05,'1111122,1111122,1111122' 
COMPS,ioos:station:USF.COMPS:NFB:1,2015-08-01T00:54:00Z,25.0840,-81.0960,6.0,7.39,53.58,8.52,'1111122,1111122,1111122' 
COMPS,ioos:station:USF.COMPS:NFB:1,2015-08-01T01:00:00Z,25.0840,-81.0960,6.0,9.36,58.59,12.34,'1111122,1111122,1111122' 
COMPS,ioos:station:USF.COMPS:NFB:1,2015-08-01T01:06:00Z,25.0840,-81.0960,6.0,11.1,68.29,13.71,'1111122,1111122,1111122' 
COMPS,ioos:station:USF.COMPS:NFB:1,2015-08-01T01:12:00Z,25.0840,-81.0960,6.0,10.0,70.56,11.56,'1111122,1111122,1111122' 
COMPS,ioos:station:USF.COMPS:NFB:1,2015-08-01T01:18:00Z,25.0840,-81.0960,6.0,7.98,59.61,9.89,'1111122,1111122,1111122' 
COMPS,ioos:station:USF.COMPS:NFB:1,2015-08-01T01:24:00Z,25.0840,-81.0960,6.0,5.39,40.29,6.85,'1111122,1111122,1111122' 
COMPS,ioos:station:USF.COMPS:NFB:1,2015-08-01T01:30:00Z,25.0840,-81.0960,6.0,4.87,45.86,6.17,'1111122,1111122,1111122' 
COMPS,ioos:station:USF.COMPS:NFB:1,2015-08-01T01:36:00Z,25.0840,-81.0960,6.0,3.68,55.52,4.41,'1111122,1111122,1111122' 
COMPS,ioos:station:USF.COMPS:NFB:1,2015-08-01T01:42:00Z,25.0840,-81.0960,6.0,2.74,54.93,3.52,'1111122,1111122,1111122' 
COMPS,ioos:station:USF.COMPS:NFB:1,2015-08-01T01:48:00Z,25.0840,-81.0960,6.0,2.09,53.97,2.74,'1111122,1111122,1111122' 
COMPS,ioos:station:USF.COMPS:NFB:1,2015-08-01T01:54:00Z,25.0840,-81.0960,6.0,1.28,73.73,1.86,'1111122,1111122,1111122' 
COMPS,ioos:station:USF.COMPS:NFB:1,2015-08-01T03:00:00Z,25.0840,-81.0960,6.0,1.73,110.38,2.35,'1111122,1111122,1111122' 
COMPS,ioos:station:USF.COMPS:NFB:1,2015-08-01T03:06:00Z,25.0840,-81.0960,6.0,2.12,114.03,3.03,'1111122,1111122,1111122' 
COMPS,ioos:station:USF.COMPS:NFB:1,2015-08-01T03:12:00Z,25.0840,-81.0960,6.0,3.36,111.25,4.01,'1111122,1111122,1111122' 
COMPS,ioos:station:USF.COMPS:NFB:1,2015-08-01T03:18:00Z,25.0840,-81.0960,6.0,2.95,77.09,4.31,'1111122,1111122,1111122' 
COMPS,ioos:station:USF.COMPS:NFB:1,2015-08-01T03:24:00Z,25.0840,-81.0960,6.0,2.27,77.04,3.13,'1111122,1111122,1111122' 
COMPS,ioos:station:USF.COMPS:NFB:1,2015-08-01T03:30:00Z,25.0840,-81.0960,6.0,3.74,117.51,4.99,'1111122,1111122,1111122' 
COMPS,ioos:station:USF.COMPS:NFB:1,2015-08-01T03:36:00Z,25.0840,-81.0960,6.0,4.87,129.4,5.97,'1111122,1111122,1111122' 
COMPS,ioos:station:USF.COMPS:NFB:1,2015-08-01T03:42:00Z,25.0840,-81.0960,6.0,4.96,131.67,6.27,'1111122,1111122,1111122' 
COMPS,ioos:station:USF.COMPS:NFB:1,2015-08-01T03:48:00Z,25.0840,-81.0960,6.0,4.91,129.51,5.78,'1111122,1111122,1111122' 
COMPS,ioos:station:USF.COMPS:NFB:1,2015-08-01T03:54:00Z,25.0840,-81.0960,6.0,4.88,129.63,6.07,'1111122,1111122,1111122' 
COMPS,ioos:station:USF.COMPS:NFB:1,2015-08-01T04:00:00Z,25.0840,-81.0960,6.0,5.22,130.81,6.07,'1111122,1111122,1111122' 
COMPS,ioos:station:USF.COMPS:NFB:1,2015-08-01T04:06:00Z,25.0840,-81.0960,6.0,5.19,122.38,6.66,'1111122,1111122,1111122' 
COMPS,ioos:station:USF.COMPS:NFB:1,2015-08-01T04:12:00Z,25.0840,-81.0960,6.0,5.25,127.3,7.25,'1111122,1111122,1111122' 
COMPS,ioos:station:USF.COMPS:NFB:1,2015-08-01T04:18:00Z,25.0840,-81.0960,6.0,5.03,125.57,6.27,'1111122,1111122,1111122' 
COMPS,ioos:station:USF.COMPS:NFB:1,2015-08-01T04:24:00Z,25.0840,-81.0960,6.0,4.5,118.5,7.05,'1111122,1111122,1111122' 
COMPS,ioos:station:USF.COMPS:NFB:1,2015-08-01T04:30:00Z,25.0840,-81.0960,6.0,4.08,118.71,5.87,'1111122,1111122,1111122' 
COMPS,ioos:station:USF.COMPS:NFB:1,2015-08-01T04:36:00Z,25.0840,-81.0960,6.0,4.91,122.34,5.87,'1111122,1111122,1111122' 
COMPS,ioos:station:USF.COMPS:NFB:1,2015-08-01T04:42:00Z,25.0840,-81.0960,6.0,5.03,125.21,6.66,'1111122,1111122,1111122' 
COMPS,ioos:station:USF.COMPS:NFB:1,2015-08-01T04:48:00Z,25.0840,-81.0960,6.0,4.3,123.48,5.39,'1111122,1111122,1111122' 
COMPS,ioos:station:USF.COMPS:NFB:1,2015-08-01T04:54:00Z,25.0840,-81.0960,6.0,4.58,127.25,5.58,'1111122,1111122,1111122' 
COMPS,ioos:station:USF.COMPS:NFB:1,2015-08-01T05:00:00Z,25.0840,-81.0960,6.0,4.52,129.3,5.48,'1111122,1111122,1111122' 
COMPS,ioos:station:USF.COMPS:NFB:1,2015-08-01T05:06:00Z,25.0840,-81.0960,6.0,4.24,129.21,5.39,'1111122,1111122,1111122' 
COMPS,ioos:station:USF.COMPS:NFB:1,2015-08-01T05:12:00Z,25.0840,-81.0960,6.0,3.78,137.54,5.09,'1111122,1111122,1111122' 
COMPS,ioos:station:USF.COMPS:NFB:1,2015-08-01T05:18:00Z,25.0840,-81.0960,6.0,3.48,130.97,4.31,'1111122,1111122,1111122' 
COMPS,ioos:station:USF.COMPS:NFB:1,2015-08-01T05:24:00Z,25.0840,-81.0960,6.0,4.19,138.7,5.39,'1111122,1111122,1111122' 
COMPS,ioos:station:USF.COMPS:NFB:1,2015-08-01T05:30:00Z,25.0840,-81.0960,6.0,4.19,137.27,4.99,'1111122,1111122,1111122' 
COMPS,ioos:station:USF.COMPS:NFB:1,2015-08-01T05:36:00Z,25.0840,-81.0960,6.0,4.43,135.9,5.97,'1111122,1111122,1111122' 
COMPS,ioos:station:USF.COMPS:NFB:1,2015-08-01T05:42:00Z,25.0840,-81.0960,6.0,4.21,132.43,5.39,'1111122,1111122,1111122' 
COMPS,ioos:station:USF.COMPS:NFB:1,2015-08-01T05:48:00Z,25.0840,-81.0960,6.0,3.23,127.98,4.6,'1111122,1111122,1111122' 
COMPS,ioos:station:USF.COMPS:NFB:1,2015-08-01T05:54:00Z,25.0840,-81.0960,6.0,3.16,126.88,4.11,'1111122,1111122,1111122' 
COMPS,ioos:station:USF.COMPS:NFB:1,2015-08-01T06:00:00Z,25.0840,-81.0960,6.0,3.59,131.74,4.5,'1111122,1111122,1111122' 
COMPS,ioos:station:USF.COMPS:NFB:1,2015-08-01T06:06:00Z,25.0840,-81.0960,6.0,3.8,133.87,5.29,'1111122,1111122,1111122' 
COMPS,ioos:station:USF.COMPS:NFB:1,2015-08-01T06:12:00Z,25.0840,-81.0960,6.0,3.03,134.96,4.5,'1111122,1111122,1111122' 
COMPS,ioos:station:USF.COMPS:NFB:1,2015-08-01T06:18:00Z,25.0840,-81.0960,6.0,2.96,130.71,3.91,'1111122,1111122,1111122' 
COMPS,ioos:station:USF.COMPS:NFB:1,2015-08-01T06:24:00Z,25.0840,-81.0960,6.0,2.7,125.7,3.33,'1111122,1111122,1111122' 
COMPS,ioos:station:USF.COMPS:NFB:1,2015-08-01T06:30:00Z,25.0840,-81.0960,6.0,2.61,114.05,3.33,'1111122,1111122,1111122' 
COMPS,ioos:station:USF.COMPS:NFB:1,2015-08-01T06:36:00Z,25.0840,-81.0960,6.0,2.82,122.8,3.72,'1111122,1111122,1111122' 
COMPS,ioos:station:USF.COMPS:NFB:1,2015-08-01T06:42:00Z,25.0840,-81.0960,6.0,3.13,124.98,4.41,'1111122,1111122,1111122' 
COMPS,ioos:station:USF.COMPS:NFB:1,2015-08-01T06:48:00Z,25.0840,-81.0960,6.0,3.41,134.36,3.91,'1111122,1111122,1111122' 
COMPS,ioos:station:USF.COMPS:NFB:1,2015-08-01T06:54:00Z,25.0840,-81.0960,6.0,3.33,133.11,4.01,'1111122,1111122,1111122' 
COMPS,ioos:station:USF.COMPS:NFB:1,2015-08-01T07:00:00Z,25.0840,-81.0960,6.0,3.4,135.62,4.31,'1111122,1111122,1111122' 
COMPS,ioos:station:USF.COMPS:NFB:1,2015-08-01T07:06:00Z,25.0840,-81.0960,6.0,3.48,137.19,4.5,'1111122,1111122,1111122' 
COMPS,ioos:station:USF.COMPS:NFB:1,2015-08-01T07:12:00Z,25.0840,-81.0960,6.0,3.51,142.58,4.5,'1111122,1111122,1111122' 
COMPS,ioos:station:USF.COMPS:NFB:1,2015-08-01T07:18:00Z,25.0840,-81.0960,6.0,3.8,147.94,4.6,'1111122,1111122,1111122' 
COMPS,ioos:station:USF.COMPS:NFB:1,2015-08-01T07:24:00Z,25.0840,-81.0960,6.0,3.47,153.19,4.6,'1111122,1111122,1111122' 
COMPS,ioos:station:USF.COMPS:NFB:1,2015-08-01T07:30:00Z,25.0840,-81.0960,6.0,3.54,157.33,4.5,'1111122,1111122,1111122' 
COMPS,ioos:station:USF.COMPS:NFB:1,2015-08-01T07:36:00Z,25.0840,-81.0960,6.0,4.0,150.21,4.9,'1111122,1111122,1111122' 
COMPS,ioos:station:USF.COMPS:NFB:1,2015-08-01T07:42:00Z,25.0840,-81.0960,6.0,3.52,149.59,4.5,'1111122,1111122,1111122' 
COMPS,ioos:station:USF.COMPS:NFB:1,2015-08-01T07:48:00Z,25.0840,-81.0960,6.0,3.93,159.77,4.7,'1111122,1111122,1111122' 
COMPS,ioos:station:USF.COMPS:NFB:1,2015-08-01T07:54:00Z,25.0840,-81.0960,6.0,4.66,168.59,5.87,'1111122,1111122,1111122' 
COMPS,ioos:station:USF.COMPS:NFB:1,2015-08-01T08:00:00Z,25.0840,-81.0960,6.0,4.5,162.17,5.39,'1111122,1111122,1111122' 
COMPS,ioos:station:USF.COMPS:NFB:1,2015-08-01T08:06:00Z,25.0840,-81.0960,6.0,4.2,169.47,5.19,'1111122,1111122,1111122' 
COMPS,ioos:station:USF.COMPS:NFB:1,2015-08-01T08:12:00Z,25.0840,-81.0960,6.0,4.46,169.7,4.99,'1111122,1111122,1111122' 
COMPS,ioos:station:USF.COMPS:NFB:1,2015-08-01T08:18:00Z,25.0840,-81.0960,6.0,4.04,165.93,4.9,'1111122,1111122,1111122' 
COMPS,ioos:station:USF.COMPS:NFB:1,2015-08-01T08:24:00Z,25.0840,-81.0960,6.0,4.0,164.19,4.8,'1111122,1111122,1111122' 
COMPS,ioos:station:USF.COMPS:NFB:1,2015-08-01T08:30:00Z,25.0840,-81.0960,6.0,4.26,172.12,5.09,'1111122,1111122,1111122' 
COMPS,ioos:station:USF.COMPS:NFB:1,2015-08-01T08:36:00Z,25.0840,-81.0960,6.0,4.02,169.14,4.99,'1111122,1111122,1111122' 
COMPS,ioos:station:USF.COMPS:NFB:1,2015-08-01T08:42:00Z,25.0840,-81.0960,6.0,4.48,155.17,5.58,'1111122,1111122,1111122' 
COMPS,ioos:station:USF.COMPS:NFB:1,2015-08-01T08:48:00Z,25.0840,-81.0960,6.0,4.4,168.37,5.39,'1111122,1111122,1111122' 
COMPS,ioos:station:USF.COMPS:NFB:1,2015-08-01T08:54:00Z,25.0840,-81.0960,6.0,4.14,168.29,4.9,'1111122,1111122,1111122' 
COMPS,ioos:station:USF.COMPS:NFB:1,2015-08-01T09:00:00Z,25.0840,-81.0960,6.0,3.76,174.66,4.8,'1111122,1111122,1111122' 
COMPS,ioos:station:USF.COMPS:NFB:1,2015-08-01T09:06:00Z,25.0840,-81.0960,6.0,4.43,167.67,5.58,'1111122,1111122,1111122' 
COMPS,ioos:station:USF.COMPS:NFB:1,2015-08-01T09:12:00Z,25.0840,-81.0960,6.0,4.98,164.03,5.58,'1111122,1111122,1111122' 
COMPS,ioos:station:USF.COMPS:NFB:1,2015-08-01T09:18:00Z,25.0840,-81.0960,6.0,4.58,161.94,5.68,'1111122,1111122,1111122' 
COMPS,ioos:station:USF.COMPS:NFB:1,2015-08-01T09:24:00Z,25.0840,-81.0960,6.0,5.25,165.2,5.97,'1111122,1111122,1111122' 
COMPS,ioos:station:USF.COMPS:NFB:1,2015-08-01T09:30:00Z,25.0840,-81.0960,6.0,5.18,160.58,6.07,'1111122,1111122,1111122' 
COMPS,ioos:station:USF.COMPS:NFB:1,2015-08-01T09:36:00Z,25.0840,-81.0960,6.0,5.86,152.49,6.85,'1111122,1111122,1111122' 
COMPS,ioos:station:USF.COMPS:NFB:1,2015-08-01T09:42:00Z,25.0840,-81.0960,6.0,5.27,154.47,6.95,'1111122,1111122,1111122' 
COMPS,ioos:station:USF.COMPS:NFB:1,2015-08-01T09:48:00Z,25.0840,-81.0960,6.0,5.2,160.46,6.27,'1111122,1111122,1111122' 
COMPS,ioos:station:USF.COMPS:NFB:1,2015-08-01T09:54:00Z,25.0840,-81.0960,6.0,5.43,163.64,6.66,'1111122,1111122,1111122' 
COMPS,ioos:station:USF.COMPS:NFB:1,2015-08-01T10:00:00Z,25.0840,-81.0960,6.0,5.34,166.74,6.07,'1111122,1111122,1111122' 
COMPS,ioos:station:USF.COMPS:NFB:1,2015-08-01T10:06:00Z,25.0840,-81.0960,6.0,5.41,165.43,6.17,'1111122,1111122,1111122' 
COMPS,ioos:station:USF.COMPS:NFB:1,2015-08-01T10:12:00Z,25.0840,-81.0960,6.0,4.74,158.56,5.87,'1111122,1111122,1111122' 
COMPS,ioos:station:USF.COMPS:NFB:1,2015-08-01T10:18:00Z,25.0840,-81.0960,6.0,4.63,156.3,5.87,'1111122,1111122,1111122' 
COMPS,ioos:station:USF.COMPS:NFB:1,2015-08-01T10:24:00Z,25.0840,-81.0960,6.0,3.95,150.51,4.8,'1111122,1111122,1111122' 
COMPS,ioos:station:USF.COMPS:NFB:1,2015-08-01T10:30:00Z,25.0840,-81.0960,6.0,3.97,158.3,4.6,'1111122,1111122,1111122' 
COMPS,ioos:station:USF.COMPS:NFB:1,2015-08-01T10:36:00Z,25.0840,-81.0960,6.0,3.58,143.99,4.31,'1111122,1111122,1111122' 
COMPS,ioos:station:USF.COMPS:NFB:1,2015-08-01T10:42:00Z,25.0840,-81.0960,6.0,4.09,157.3,4.7,'1111122,1111122,1111122' 
COMPS,ioos:station:USF.COMPS:NFB:1,2015-08-01T10:48:00Z,25.0840,-81.0960,6.0,4.0,149.3,5.29,'1111122,1111122,1111122' 
COMPS,ioos:station:USF.COMPS:NFB:1,2015-08-01T10:54:00Z,25.0840,-81.0960,6.0,4.82,140.92,5.58,'1111122,1111122,1111122' 
COMPS,ioos:station:USF.COMPS:NFB:1,2015-08-01T11:00:00Z,25.0840,-81.0960,6.0,4.22,151.18,4.9,'1111122,1111122,1111122' 
COMPS,ioos:station:USF.COMPS:NFB:1,2015-08-01T11:06:00Z,25.0840,-81.0960,6.0,4.35,148.09,4.99,'1111122,1111122,1111122' 
COMPS,ioos:station:USF.COMPS:NFB:1,2015-08-01T11:12:00Z,25.0840,-81.0960,6.0,4.15,152.21,5.09,'1111122,1111122,1111122' 
COMPS,ioos:station:USF.COMPS:NFB:1,2015-08-01T11:18:00Z,25.0840,-81.0960,6.0,4.11,145.32,4.99,'1111122,1111122,1111122' 
COMPS,ioos:station:USF.COMPS:NFB:1,2015-08-01T11:24:00Z,25.0840,-81.0960,6.0,4.2,145.5,4.99,'1111122,1111122,1111122' 
COMPS,ioos:station:USF.COMPS:NFB:1,2015-08-01T11:30:00Z,25.0840,-81.0960,6.0,3.92,142.07,4.9,'1111122,1111122,1111122' 
COMPS,ioos:station:USF.COMPS:NFB:1,2015-08-01T11:36:00Z,25.0840,-81.0960,6.0,4.11,153.29,5.09,'1111122,1111122,1111122' 
COMPS,ioos:station:USF.COMPS:NFB:1,2015-08-01T11:42:00Z,25.0840,-81.0960,6.0,4.21,165.39,4.8,'1111122,1111122,1111122' 
COMPS,ioos:station:USF.COMPS:NFB:1,2015-08-01T11:48:00Z,25.0840,-81.0960,6.0,3.89,167.26,4.6,'1111122,1111122,1111122' 
COMPS,ioos:station:USF.COMPS:NFB:1,2015-08-01T11:54:00Z,25.0840,-81.0960,6.0,3.81,167.87,5.09,'1111122,1111122,1111122' 
COMPS,ioos:station:USF.COMPS:NFB:1,2015-08-01T12:00:00Z,25.0840,-81.0960,6.0,4.61,149.93,5.48,'1111122,1111122,1111122' 
COMPS,ioos:station:USF.COMPS:NFB:1,2015-08-01T12:06:00Z,25.0840,-81.0960,6.0,5.12,142.49,6.27,'1111122,1111122,1111122' 
COMPS,ioos:station:USF.COMPS:NFB:1,2015-08-01T12:12:00Z,25.0840,-81.0960,6.0,5.68,145.83,6.56,'1111122,1111122,1111122' 
COMPS,ioos:station:USF.COMPS:NFB:1,2015-08-01T12:18:00Z,25.0840,-81.0960,6.0,5.34,152.77,6.66,'1111122,1111122,1111122' 
COMPS,ioos:station:USF.COMPS:NFB:1,2015-08-01T12:24:00Z,25.0840,-81.0960,6.0,5.15,153.95,5.97,'1111122,1111122,1111122' 
COMPS,ioos:station:USF.COMPS:NFB:1,2015-08-01T12:30:00Z,25.0840,-81.0960,6.0,5.35,161.58,7.05,'1111122,1111122,1111122' 
COMPS,ioos:station:USF.COMPS:NFB:1,2015-08-01T12:36:00Z,25.0840,-81.0960,6.0,5.78,167.92,6.85,'1111122,1111122,1111122' 
COMPS,ioos:station:USF.COMPS:NFB:1,2015-08-01T12:42:00Z,25.0840,-81.0960,6.0,5.86,169.78,7.15,'1111122,1111122,1111122' 
COMPS,ioos:station:USF.COMPS:NFB:1,2015-08-01T12:48:00Z,25.0840,-81.0960,6.0,5.99,169.64,6.76,'1111122,1111122,1111122' 
COMPS,ioos:station:USF.COMPS:NFB:1,2015-08-01T12:54:00Z,25.0840,-81.0960,6.0,5.69,165.4,6.66,'1111122,1111122,1111122' 
COMPS,ioos:station:USF.COMPS:NFB:1,2015-08-01T13:00:00Z,25.0840,-81.0960,6.0,5.94,175.16,6.46,'1111122,1111122,1111122' 
COMPS,ioos:station:USF.COMPS:NFB:1,2015-08-01T13:06:00Z,25.0840,-81.0960,6.0,5.52,165.41,6.85,'1111122,1111122,1111122' 
COMPS,ioos:station:USF.COMPS:NFB:1,2015-08-01T13:12:00Z,25.0840,-81.0960,6.0,5.46,165.56,6.27,'1111122,1111122,1111122' 
COMPS,ioos:station:USF.COMPS:NFB:1,2015-08-01T13:18:00Z,25.0840,-81.0960,6.0,5.49,164.07,6.66,'1111122,1111122,1111122' 
COMPS,ioos:station:USF.COMPS:NFB:1,2015-08-01T13:24:00Z,25.0840,-81.0960,6.0,6.28,156.86,7.64,'1111122,1111122,1111122' 
COMPS,ioos:station:USF.COMPS:NFB:1,2015-08-01T13:30:00Z,25.0840,-81.0960,6.0,6.51,162.25,7.64,'1111122,1111122,1111122' 
COMPS,ioos:station:USF.COMPS:NFB:1,2015-08-01T13:36:00Z,25.0840,-81.0960,6.0,6.03,168.34,7.35,'1111122,1111122,1111122' 
COMPS,ioos:station:USF.COMPS:NFB:1,2015-08-01T13:42:00Z,25.0840,-81.0960,6.0,6.17,170.54,7.35,'1111122,1111122,1111122' 
COMPS,ioos:station:USF.COMPS:NFB:1,2015-08-01T13:48:00Z,25.0840,-81.0960,6.0,6.18,167.57,7.54,'1111122,1111122,1111122' 
COMPS,ioos:station:USF.COMPS:NFB:1,2015-08-01T13:54:00Z,25.0840,-81.0960,6.0,6.31,160.19,7.35,'1111122,1111122,1111122' 
COMPS,ioos:station:USF.COMPS:NFB:1,2015-08-01T14:00:00Z,25.0840,-81.0960,6.0,6.6,161.95,7.83,'1111122,1111122,1111122' 
COMPS,ioos:station:USF.COMPS:NFB:1,2015-08-01T14:06:00Z,25.0840,-81.0960,6.0,6.69,162.51,8.23,'1111122,1111122,1111122' 
COMPS,ioos:station:USF.COMPS:NFB:1,2015-08-01T14:12:00Z,25.0840,-81.0960,6.0,6.84,161.09,8.03,'1111122,1111122,1111122' 
COMPS,ioos:station:USF.COMPS:NFB:1,2015-08-01T14:18:00Z,25.0840,-81.0960,6.0,6.72,165.08,8.03,'1111122,1111122,1111122' 
COMPS,ioos:station:USF.COMPS:NFB:1,2015-08-01T14:24:00Z,25.0840,-81.0960,6.0,7.18,166.21,8.62,'1111122,1111122,1111122' 
COMPS,ioos:station:USF.COMPS:NFB:1,2015-08-01T14:30:00Z,25.0840,-81.0960,6.0,7.07,163.85,8.42,'1111122,1111122,1111122' 
COMPS,ioos:station:USF.COMPS:NFB:1,2015-08-01T14:36:00Z,25.0840,-81.0960,6.0,6.99,159.79,8.13,'1111122,1111122,1111122' 
COMPS,ioos:station:USF.COMPS:NFB:1,2015-08-01T14:42:00Z,25.0840,-81.0960,6.0,6.5,168.31,7.54,'1111122,1111122,1111122' 
COMPS,ioos:station:USF.COMPS:NFB:1,2015-08-01T14:48:00Z,25.0840,-81.0960,6.0,6.46,170.76,7.83,'1111122,1111122,1111122' 
COMPS,ioos:station:USF.COMPS:NFB:1,2015-08-01T14:54:00Z,25.0840,-81.0960,6.0,6.28,166.29,7.64,'1111122,1111122,1111122' 
COMPS,ioos:station:USF.COMPS:NFB:1,2015-08-01T15:00:00Z,25.0840,-81.0960,6.0,7.44,170.29,8.62,'1111122,1111122,1111122' 
COMPS,ioos:station:USF.COMPS:NFB:1,2015-08-01T15:06:00Z,25.0840,-81.0960,6.0,7.54,172.44,9.01,'1111122,1111122,1111122' 
COMPS,ioos:station:USF.COMPS:NFB:1,2015-08-01T15:12:00Z,25.0840,-81.0960,6.0,7.02,174.81,8.03,'1111122,1111122,1111122' 
COMPS,ioos:station:USF.COMPS:NFB:1,2015-08-01T15:18:00Z,25.0840,-81.0960,6.0,6.74,169.68,8.13,'1111122,1111122,1111122' 
COMPS,ioos:station:USF.COMPS:NFB:1,2015-08-01T15:24:00Z,25.0840,-81.0960,6.0,6.42,173.77,7.64,'1111122,1111122,1111122' 
COMPS,ioos:station:USF.COMPS:NFB:1,2015-08-01T15:30:00Z,25.0840,-81.0960,6.0,6.42,174.99,7.64,'1111122,1111122,1111122' 
COMPS,ioos:station:USF.COMPS:NFB:1,2015-08-01T15:36:00Z,25.0840,-81.0960,6.0,6.04,165.6,6.95,'1111122,1111122,1111122' 
COMPS,ioos:station:USF.COMPS:NFB:1,2015-08-01T15:42:00Z,25.0840,-81.0960,6.0,5.54,167.66,7.44,'1111122,1111122,1111122' 
COMPS,ioos:station:USF.COMPS:NFB:1,2015-08-01T15:48:00Z,25.0840,-81.0960,6.0,5.75,172.35,6.95,'1111122,1111122,1111122' 
COMPS,ioos:station:USF.COMPS:NFB:1,2015-08-01T15:54:00Z,25.0840,-81.0960,6.0,5.97,165.97,6.95,'1111122,1111122,1111122' 
COMPS,ioos:station:USF.COMPS:NFB:1,2015-08-01T16:00:00Z,25.0840,-81.0960,6.0,5.13,182.31,5.87,'1111122,1111122,1111122' 
COMPS,ioos:station:USF.COMPS:NFB:1,2015-08-01T16:06:00Z,25.0840,-81.0960,6.0,5.59,178.57,6.76,'1111122,1111122,1111122' 
COMPS,ioos:station:USF.COMPS:NFB:1,2015-08-01T16:12:00Z,25.0840,-81.0960,6.0,5.2,182.72,6.27,'1111122,1111122,1111122' 
COMPS,ioos:station:USF.COMPS:NFB:1,2015-08-01T16:18:00Z,25.0840,-81.0960,6.0,5.85,188.04,7.54,'1111122,1111122,1111122' 
COMPS,ioos:station:USF.COMPS:NFB:1,2015-08-01T16:24:00Z,25.0840,-81.0960,6.0,5.55,185.27,6.85,'1111122,1111122,1111122' 
COMPS,ioos:station:USF.COMPS:NFB:1,2015-08-01T16:30:00Z,25.0840,-81.0960,6.0,5.75,187.88,6.66,'1111122,1111122,1111122' 
COMPS,ioos:station:USF.COMPS:NFB:1,2015-08-01T16:36:00Z,25.0840,-81.0960,6.0,5.64,188.4,7.44,'1111122,1111122,1111122' 
COMPS,ioos:station:USF.COMPS:NFB:1,2015-08-01T16:42:00Z,25.0840,-81.0960,6.0,5.64,188.38,7.15,'1111122,1111122,1111122' 
COMPS,ioos:station:USF.COMPS:NFB:1,2015-08-01T16:48:00Z,25.0840,-81.0960,6.0,5.58,186.5,6.85,'1111122,1111122,1111122' 
COMPS,ioos:station:USF.COMPS:NFB:1,2015-08-01T16:54:00Z,25.0840,-81.0960,6.0,5.77,186.36,7.05,'1111122,1111122,1111122' 
COMPS,ioos:station:USF.COMPS:NFB:1,2015-08-01T17:00:00Z,25.0840,-81.0960,6.0,5.62,187.78,6.56,'1111122,1111122,1111122' 
COMPS,ioos:station:USF.COMPS:NFB:1,2015-08-01T17:06:00Z,25.0840,-81.0960,6.0,5.22,188.3,6.46,'1111122,1111122,1111122' 
COMPS,ioos:station:USF.COMPS:NFB:1,2015-08-01T17:12:00Z,25.0840,-81.0960,6.0,5.36,188.85,6.27,'1111122,1111122,1111122' 
COMPS,ioos:station:USF.COMPS:NFB:1,2015-08-01T17:18:00Z,25.0840,-81.0960,6.0,5.51,190.16,6.37,'1111122,1111122,1111122' 
COMPS,ioos:station:USF.COMPS:NFB:1,2015-08-01T17:24:00Z,25.0840,-81.0960,6.0,5.2,175.66,6.27,'1111122,1111122,1111122' 
COMPS,ioos:station:USF.COMPS:NFB:1,2015-08-01T17:30:00Z,25.0840,-81.0960,6.0,5.21,169.06,6.56,'1111122,1111122,1111122' 
COMPS,ioos:station:USF.COMPS:NFB:1,2015-08-01T17:36:00Z,25.0840,-81.0960,6.0,5.31,173.96,6.17,'1111122,1111122,1111122' 
COMPS,ioos:station:USF.COMPS:NFB:1,2015-08-01T17:42:00Z,25.0840,-81.0960,6.0,4.59,169.73,5.87,'1111122,1111122,1111122' 
COMPS,ioos:station:USF.COMPS:NFB:1,2015-08-01T17:48:00Z,25.0840,-81.0960,6.0,5.2,172.58,6.46,'1111122,1111122,1111122' 
COMPS,ioos:station:USF.COMPS:NFB:1,2015-08-01T17:54:00Z,25.0840,-81.0960,6.0,4.82,167.51,6.07,'1111122,1111122,1111122' 
COMPS,ioos:station:USF.COMPS:NFB:1,2015-08-01T18:00:00Z,25.0840,-81.0960,6.0,5.07,170.56,6.37,'1111122,1111122,1111122' 
COMPS,ioos:station:USF.COMPS:NFB:1,2015-08-01T18:06:00Z,25.0840,-81.0960,6.0,4.59,169.78,6.46,'1111122,1111122,1111122' 
COMPS,ioos:station:USF.COMPS:NFB:1,2015-08-01T18:12:00Z,25.0840,-81.0960,6.0,4.75,172.07,5.87,'1111122,1111122,1111122' 
COMPS,ioos:station:USF.COMPS:NFB:1,2015-08-01T18:18:00Z,25.0840,-81.0960,6.0,5.15,177.65,6.27,'1111122,1111122,1111122' 
COMPS,ioos:station:USF.COMPS:NFB:1,2015-08-01T18:24:00Z,25.0840,-81.0960,6.0,4.78,171.01,5.48,'1111122,1111122,1111122' 
COMPS,ioos:station:USF.COMPS:NFB:1,2015-08-01T18:30:00Z,25.0840,-81.0960,6.0,5.16,184.87,6.07,'1111122,1111122,1111122' 
COMPS,ioos:station:USF.COMPS:NFB:1,2015-08-01T18:36:00Z,25.0840,-81.0960,6.0,4.85,176.11,5.87,'1111122,1111122,1111122' 
COMPS,ioos:station:USF.COMPS:NFB:1,2015-08-01T18:42:00Z,25.0840,-81.0960,6.0,4.6,183.04,5.68,'1111122,1111122,1111122' 
COMPS,ioos:station:USF.COMPS:NFB:1,2015-08-01T18:48:00Z,25.0840,-81.0960,6.0,4.36,189.59,5.19,'1111122,1111122,1111122' 
COMPS,ioos:station:USF.COMPS:NFB:1,2015-08-01T18:54:00Z,25.0840,-81.0960,6.0,4.14,186.82,4.8,'1111122,1111122,1111122' 
COMPS,ioos:station:USF.COMPS:NFB:1,2015-08-01T19:00:00Z,25.0840,-81.0960,6.0,4.18,185.11,5.39,'1111122,1111122,1111122' 
COMPS,ioos:station:USF.COMPS:NFB:1,2015-08-01T19:06:00Z,25.0840,-81.0960,6.0,4.27,177.37,5.19,'1111122,1111122,1111122' 
COMPS,ioos:station:USF.COMPS:NFB:1,2015-08-01T19:12:00Z,25.0840,-81.0960,6.0,4.51,186.53,5.58,'1111122,1111122,1111122' 
COMPS,ioos:station:USF.COMPS:NFB:1,2015-08-01T19:18:00Z,25.0840,-81.0960,6.0,4.76,181.85,5.97,'1111122,1111122,1111122' 
COMPS,ioos:station:USF.COMPS:NFB:1,2015-08-01T19:24:00Z,25.0840,-81.0960,6.0,5.0,175.16,6.07,'1111122,1111122,1111122' 
COMPS,ioos:station:USF.COMPS:NFB:1,2015-08-01T19:30:00Z,25.0840,-81.0960,6.0,4.79,179.87,6.17,'1111122,1111122,1111122' 
COMPS,ioos:station:USF.COMPS:NFB:1,2015-08-01T19:36:00Z,25.0840,-81.0960,6.0,4.4,184.76,5.19,'1111122,1111122,1111122' 
COMPS,ioos:station:USF.COMPS:NFB:1,2015-08-01T19:42:00Z,25.0840,-81.0960,6.0,3.48,179.61,4.6,'1111122,1111122,1111122' 
COMPS,ioos:station:USF.COMPS:NFB:1,2015-08-01T19:48:00Z,25.0840,-81.0960,6.0,3.61,183.02,4.9,'1111122,1111122,1111122' 
COMPS,ioos:station:USF.COMPS:NFB:1,2015-08-01T19:54:00Z,25.0840,-81.0960,6.0,3.93,184.78,4.8,'1111122,1111122,1111122' 
COMPS,ioos:station:USF.COMPS:NFB:1,2015-08-01T20:00:00Z,25.0840,-81.0960,6.0,3.34,184.22,4.5,'1111122,1111122,1111122' 
COMPS,ioos:station:USF.COMPS:NFB:1,2015-08-01T20:06:00Z,25.0840,-81.0960,6.0,2.98,190.79,3.62,'1111122,1111122,1111122' 
COMPS,ioos:station:USF.COMPS:NFB:1,2015-08-01T20:12:00Z,25.0840,-81.0960,6.0,3.43,188.24,4.6,'1111122,1111122,1111122' 
COMPS,ioos:station:USF.COMPS:NFB:1,2015-08-01T20:18:00Z,25.0840,-81.0960,6.0,2.97,183.58,3.82,'1111122,1111122,1111122' 
COMPS,ioos:station:USF.COMPS:NFB:1,2015-08-01T20:24:00Z,25.0840,-81.0960,6.0,3.03,201.43,4.21,'1111122,1111122,1111122' 
COMPS,ioos:station:USF.COMPS:NFB:1,2015-08-01T20:30:00Z,25.0840,-81.0960,6.0,3.47,193.13,4.5,'1111122,1111122,1111122' 
COMPS,ioos:station:USF.COMPS:NFB:1,2015-08-01T20:36:00Z,25.0840,-81.0960,6.0,3.8,183.76,4.9,'1111122,1111122,1111122' 
COMPS,ioos:station:USF.COMPS:NFB:1,2015-08-01T20:42:00Z,25.0840,-81.0960,6.0,4.28,208.4,5.68,'1111122,1111122,1111122' 